Hourly Data Report for October 05, 2016

All times are specified in Local Standard Time (LST). Add 1 hour to adjust for Daylight Saving Time where and when it is observed.

BAKER LAKE A
NUNAVUT

64°17'56.000" N
96°04'40.000" W
18.60 m
2300503
71926
YBK

Download Data

Hourly Data (October 2016)
Hourly Data Report for October 5, 2016
Temp Definition
°C
Dew Point Temp Definition
°C
Rel Hum Definition
%
Wind Dir Definition
10's deg

Wind Spd Definition
km/h
Visibility Definition
km
Stn Press Definition
kPa
Hmdx Definition


Wind Chill Definition


Weather Definition


TIME
00:00 Legend Double Dagger -0.9 -3.0 86 30 13 24.1 102.05   -5 Snow
01:00 Legend Double Dagger -0.9 -3.0 86 31 13 24.1 102.11   -5 LegendNANA
02:00 Legend Double Dagger -1.1 -3.2 86 32 18 24.1 102.17   -6 Snow
03:00 Legend Double Dagger -1.2 -3.6 84 32 17 24.1 102.20   -6 Cloudy
04:00 Legend Double Dagger -0.8 -3.0 85 30 17 24.1 102.23   -6 LegendNANA
05:00 Legend Double Dagger -1.0 -2.9 87 28 11 24.1 102.28   -5 LegendNANA
06:00 Legend Double Dagger -0.4 -2.2 88 28 10 32.2 102.33   -4 Mostly Cloudy
07:00 Legend Double Dagger 0.2 -1.4 89 28 16 32.2 102.36     LegendNANA
08:00 Legend Double Dagger 0.5 -1.0 90 28 16 40.2 102.41     LegendNANA
09:00 Legend Double Dagger 0.8 -0.7 90 29 16 40.2 102.41     Snow
10:00 Legend Double Dagger 1.0 -0.6 89 31 18 40.2 102.42     Snow
11:00 Legend Double Dagger 1.4 -0.4 88 31 18 40.2 102.44     Snow
12:00 Legend Double Dagger 1.6 -0.8 84 31 22 40.2 102.45     Cloudy
13:00 Legend Double Dagger 1.7 -0.9 83 31 20 40.2 102.46     LegendNANA
14:00 Legend Double Dagger 1.6 -1.0 83 31 23 40.2 102.50     LegendNANA
15:00 Legend Double Dagger 1.6 -0.8 84 31 17 40.2 102.46     Mostly Cloudy
16:00 Legend Double Dagger 0.9 -1.3 85 32 18 40.2 102.44     Snow Showers
17:00 Legend Double Dagger 0.3 -1.3 89 30 8 40.2 102.50     LegendNANA
18:00 Legend Double Dagger 0.4 -1.1 90 29 9 40.2 102.52     Mostly Cloudy
19:00 Legend Double Dagger 0.5 -1.0 90 32 14 24.1 102.49     LegendNANA
20:00 Legend Double Dagger 0.4 -1.1 90 31 7 24.1 102.53     LegendNANA
21:00 Legend Double Dagger 0.6 -1.0 89 30 10 24.1 102.53     Cloudy
22:00 Legend Double Dagger -0.2 -1.3 92 33 11 11.3 102.49   -4 Snow
23:00 Legend Double Dagger -0.3 -1.4 92 34 9 16.1 102.46   -3 Snow

Notes on Data Quality.

Legend

  • E = Estimated
  • M = Missing
  • NA = Not Available
  • ‡ = Partner data that is not subject to review by the National Climate Archives
Date modified: